{"data":{"norad_id":57644,"epoch":"2026-09-20T04:12:21.019392Z","epoch_age_seconds":159654,"freshness":"FRESH","line1":"1 57644U 23122N   26263.17524328 -.00000082  00000+0  65559-5 0  9992","line2":"2 57644  43.0025  73.9336 0001287 262.7457  97.3249 15.27575612171952","mean_motion":15.27575612,"eccentricity":0.0001287,"inclination_deg":43.0025,"raan_deg":73.9336,"arg_perigee_deg":262.7457,"mean_anomaly_deg":97.3249,"bstar":6.5559e-6,"rev_number":17195,"period_min":94.267019497297,"perigee_km":482.17919898009,"apogee_km":483.94527166327,"semimajor_km":6861.1992353217,"source":"CELESTRAK","updated_at":"2026-09-21T09:00:33.667631Z"}}